DW9439 Weather Reports


Display with metric or nautical units.
time (UTC)temp
F
wind
direction
speed
MPH
gust
MPH
rain 1hr
in
rain 24hr
in
rain mn
in
humidity
%
barometer
mb
20260904195825 100 215 8.0 17.0 0.00 0.00 0.00 24 1012.4
20260904195516 100 202 7.0 17.0 0.00 0.00 0.00 25 1012.3
20260904195207 100 198 7.0 15.0 0.00 0.00 0.00 25 1012.4
20260904194854 99 223 7.0 19.0 0.00 0.00 0.00 26 1012.3
20260904194541 99 223 7.0 19.0 0.00 0.00 0.00 26 1012.4
20260904194241 100 223 8.0 19.0 0.00 0.00 0.00 25 1012.4
20260904193941 100 205 9.0 19.0 0.00 0.00 0.00 25 1012.4
20260904193219 100 202 9.0 19.0 0.00 0.00 0.00 24 1012.5
20260904192034 99 191 7.0 17.0 0.00 0.00 0.00 27 1012.5
20260904191724 98 199 6.0 13.0 0.00 0.00 0.00 28 1012.6
20260904190544 98 188 4.0 15.0 0.00 0.00 0.00 28 1012.7
20260904190244 98 188 6.0 15.0 0.00 0.00 0.00 28 1012.7
20260904185939 99 189 6.0 15.0 0.00 0.00 0.00 28 1012.7
20260904185627 99 189 5.0 15.0 0.00 0.00 0.00 28 1012.9
20260904184901 98 235 4.0 20.0 0.00 0.00 0.00 30 1012.9
20260904184602 97 235 6.0 20.0 0.00 0.00 0.00 29 1012.9
20260904184254 97 235 7.0 20.0 0.00 0.00 0.00 29 1012.8
20260904183958 97 235 7.0 20.0 0.00 0.00 0.00 28 1013.0
20260904183225 97 209 5.0 13.0 0.00 0.00 0.00 29 1012.9
20260904182912 97 211 6.0 13.0 0.00 0.00 0.00 29 1013.0
20260904182603 97 211 7.0 13.0 0.00 0.00 0.00 30 1013.0
20260904182306 97 211 8.0 13.0 0.00 0.00 0.00 30 1013.1
20260904182004 97 211 6.0 13.0 0.00 0.00 0.00 29 1013.1
20260904181656 97 212 5.0 13.0 0.00 0.00 0.00 31 1013.2
20260904180929 95 215 5.0 11.0 0.00 0.00 0.00 33 1013.3
20260904180633 95 215 6.0 11.0 0.00 0.00 0.00 33 1013.4
20260904180328 95 215 6.0 11.0 0.00 0.00 0.00 33 1013.4
20260904180020 95 216 5.0 9.0 0.00 0.00 0.00 33 1013.4
20260904175709 95 216 4.0 12.0 0.00 0.00 0.00 33 1013.4
20260904175402 94 216 5.0 12.0 0.00 0.00 0.00 34 1013.4
20260904175059 94 216 6.0 12.0 0.00 0.00 0.00 32 1013.5
20260904174801 94 216 6.0 13.0 0.00 0.00 0.00 34 1013.5
20260904174501 94 216 5.0 13.0 0.00 0.00 0.00 34 1013.6
20260904174152 93 211 6.0 13.0 0.00 0.00 0.00 36 1013.7
20260904173851 93 209 7.0 13.0 0.00 0.00 0.00 37 1013.6
20260904173538 93 209 6.0 13.0 0.00 0.00 0.00 36 1013.6
20260904173228 93 204 6.0 13.0 0.00 0.00 0.00 39 1013.7
20260904172924 92 203 6.0 11.0 0.00 0.00 0.00 39 1013.8
20260904172628 92 205 6.0 12.0 0.00 0.00 0.00 40 1013.7
20260904172327 92 208 7.0 12.0 0.00 0.00 0.00 40 1013.7
20260904171130 91 208 8.0 12.0 0.00 0.00 0.00 38 1013.9
20260904170821 91 206 7.0 12.0 0.00 0.00 0.00 39 1014.0
20260904170104 89 207 6.0 10.0 0.00 0.00 0.00 39 1013.9
20260904165332 87 206 3.0 8.0 0.00 0.00 0.00 43 1013.9
20260904165024 86 206 2.0 7.0 0.00 0.00 0.00 49 1013.7
20260904164301 84 206 5.0 10.0 0.00 0.00 0.00 49 1013.9
20260904163954 83 206 6.0 10.0 0.00 0.00 0.00 50 1013.9
20260904163656 83 206 7.0 10.0 0.00 0.00 0.00 50 1014.0
20260904163353 83 206 7.0 14.0 0.00 0.00 0.00 51 1014.0
20260904163044 82 206 8.0 14.0 0.00 0.00 0.00 51 1014.0
20260904162737 82 206 8.0 14.0 0.00 0.00 0.00 51 1014.0
20260904162429 82 206 9.0 14.0 0.00 0.00 0.00 51 1014.0
20260904162119 82 206 9.0 14.0 0.00 0.00 0.00 51 1014.0
20260904161352 82 210 8.0 12.0 0.00 0.00 0.00 51 1014.2
20260904161046 82 210 8.0 12.0 0.00 0.00 0.00 51 1014.1
20260904160738 82 210 9.0 12.0 0.00 0.00 0.00 50 1014.0
20260904160439 82 210 9.0 12.0 0.00 0.00 0.00 50 1014.0
20260904160128 82 211 8.0 11.0 0.00 0.00 0.00 50 1014.0
20260904155817 83 212 8.0 11.0 0.00 0.00 0.00 50 1014.0
20260904155510 83 213 8.0 11.0 0.00 0.00 0.00 50 1013.9
20260904155207 83 213 7.0 11.0 0.00 0.00 0.00 51 1013.9
20260904154906 82 213 7.0 11.0 0.00 0.00 0.00 50 1013.9
20260904154136 83 213 8.0 11.0 0.00 0.00 0.00 49 1013.8
20260904153412 83 214 6.0 11.0 0.00 0.00 0.00 51 1013.9
20260904152636 83 215 7.0 13.0 0.00 0.00 0.00 50 1013.9
20260904152328 83 215 8.0 13.0 0.00 0.00 0.00 51 1013.9
20260904152028 82 215 8.0 13.0 0.00 0.00 0.00 52 1013.8
20260904151718 81 214 9.0 14.0 0.00 0.00 0.00 54 1013.8
20260904151422 81 214 9.0 14.0 0.00 0.00 0.00 54 1013.7
20260904151116 81 213 9.0 14.0 0.00 0.00 0.00 54 1013.7
20260904150355 80 212 10.0 15.0 0.00 0.00 0.00 58 1013.6
20260904150047 79 211 10.0 15.0 0.00 0.00 0.00 58 1013.6
20260904145748 79 212 10.0 15.0 0.00 0.00 0.00 58 1013.6
20260904145436 79 209 10.0 15.0 0.00 0.00 0.00 60 1013.6
20260904145139 78 209 11.0 15.0 0.00 0.00 0.00 59 1013.6
20260904144837 78 209 11.0 15.0 0.00 0.00 0.00 60 1013.6
20260904144537 78 213 9.0 14.0 0.00 0.00 0.00 62 1013.5
20260904144224 77 214 8.0 14.0 0.00 0.00 0.00 64 1013.5
20260904143921 77 217 6.0 13.0 0.00 0.00 0.00 68 1013.5
20260904143620 77 223 7.0 13.0 0.00 0.00 0.00 69 1013.6
20260904143317 77 223 8.0 17.0 0.00 0.00 0.00 65 1013.5
20260904143014 78 223 10.0 17.0 0.00 0.00 0.00 65 1013.8
20260904141843 79 212 11.0 17.0 0.00 0.00 0.00 56 1013.7
20260904141531 78 212 11.0 15.0 0.00 0.00 0.00 57 1013.7
20260904141228 77 214 11.0 15.0 0.00 0.00 0.00 58 1013.7
20260904140919 77 214 12.0 15.0 0.00 0.00 0.00 58 1013.6
20260904140606 77 214 11.0 15.0 0.00 0.00 0.00 58 1013.7
20260904140307 76 213 11.0 15.0 0.00 0.00 0.00 60 1013.7
20260904135535 75 211 10.0 15.0 0.00 0.00 0.00 62 1013.6
20260904135227 74 201 10.0 14.0 0.00 0.00 0.00 63 1013.6
20260904134915 74 198 10.0 13.0 0.00 0.00 0.00 64 1013.6
20260904134151 72 191 10.0 14.0 0.00 0.00 0.00 66 1013.5
20260904133433 71 194 10.0 15.0 0.00 0.00 0.00 68 1013.4
20260904133134 71 190 10.0 15.0 0.00 0.00 0.00 69 1013.5
20260904132834 70 190 10.0 15.0 0.00 0.00 0.00 69 1013.5
20260904132533 70 188 10.0 17.0 0.00 0.00 0.00 69 1013.3
20260904132225 70 188 10.0 17.0 0.00 0.00 0.00 70 1013.2
20260904131919 70 187 10.0 17.0 0.00 0.00 0.00 70 1013.2
20260904131617 70 186 10.0 17.0 0.00 0.00 0.00 70 1013.2
20260904131317 69 186 10.0 17.0 0.00 0.00 0.00 71 1013.2
20260904130129 68 187 10.0 14.0 0.00 0.00 0.00 71 1013.1
20260904125404 68 188 10.0 14.0 0.00 0.00 0.00 71 1013.1
20260904125106 68 188 10.0 14.0 0.00 0.00 0.00 71 1013.0
20260904124810 68 188 9.0 14.0 0.00 0.00 0.00 71 1013.0
20260904124514 68 189 9.0 14.0 0.00 0.00 0.00 71 1013.0
20260904124200 68 190 8.0 14.0 0.00 0.00 0.00 71 1013.0
20260904123857 68 190 8.0 14.0 0.00 0.00 0.00 71 1013.0
20260904123130 68 192 8.0 14.0 0.00 0.00 0.00 71 1013.0
20260904122403 68 192 8.0 12.0 0.00 0.00 0.00 71 1013.0
20260904121635 68 193 6.0 12.0 0.00 0.00 0.00 71 1013.1
20260904120455 68 193 6.0 11.0 0.00 0.00 0.00 70 1012.9
20260904120157 68 193 6.0 11.0 0.00 0.00 0.00 69 1013.0
20260904115845 68 193 6.0 11.0 0.00 0.00 0.00 69 1012.9
20260904115533 69 193 6.0 11.0 0.00 0.00 0.00 69 1013.0
20260904115220 69 193 6.0 11.0 0.00 0.00 0.00 69 1012.9
20260904114913 69 193 6.0 10.0 0.00 0.00 0.00 69 1012.9
20260904114606 69 193 6.0 10.0 0.00 0.00 0.00 68 1012.8
20260904114309 69 193 6.0 10.0 0.00 0.00 0.00 68 1012.9
20260904113957 69 193 6.0 10.0 0.00 0.00 0.00 68 1013.0
20260904113648 69 193 6.0 10.0 0.00 0.00 0.00 68 1012.9
20260904112918 69 193 6.0 10.0 0.00 0.00 0.00 67 1012.9
20260904112608 69 193 7.0 10.0 0.00 0.00 0.00 67 1012.9
20260904110559 70 193 6.0 9.0 0.00 0.00 0.00 67 1013.0
20260904105832 70 193 5.0 7.0 0.00 0.00 0.00 66 1013.1
20260904105533 70 193 5.0 7.0 0.00 0.00 0.00 66 1013.1
20260904104821 71 193 5.0 7.0 0.00 0.00 0.00 65 1013.1
20260904104510 71 193 5.0 7.0 0.00 0.00 0.00 64 1013.1
20260904104212 71 193 5.0 7.0 0.00 0.00 0.00 64 1013.2
20260904103019 72 193 6.0 10.0 0.00 0.00 0.00 61 1013.1
20260904102715 72 193 6.0 10.0 0.00 0.00 0.00 61 1013.1
20260904101959 73 193 7.0 12.0 0.00 0.00 0.00 60 1013.0
20260904101700 73 193 8.0 12.0 0.00 0.00 0.00 59 1013.0
20260904100939 74 193 8.0 13.0 0.00 0.00 0.00 58 1013.0
20260904100634 74 193 8.0 13.0 0.00 0.00 0.00 57 1012.9
20260904100329 74 193 8.0 13.0 0.00 0.00 0.00 57 1013.0
20260904100019 75 193 8.0 15.0 0.00 0.00 0.00 57 1013.0
20260904095713 75 193 9.0 15.0 0.00 0.00 0.00 56 1012.9
20260904095409 75 195 10.0 15.0 0.00 0.00 0.00 56 1012.9
20260904095103 75 195 10.0 15.0 0.00 0.00 0.00 56 1012.8
20260904094805 75 196 10.0 15.0 0.00 0.00 0.00 56 1012.7
20260904094505 75 192 9.0 15.0 0.00 0.00 0.00 56 1012.7
20260904094204 75 189 9.0 15.0 0.00 0.00 0.00 56 1012.6
20260904093902 75 188 8.0 14.0 0.00 0.00 0.00 55 1012.7
20260904093602 75 190 9.0 15.0 0.00 0.00 0.00 55 1012.8
20260904092837 76 190 10.0 15.0 0.00 0.00 0.00 55 1012.6
20260904092535 76 191 10.0 15.0 0.00 0.00 0.00 55 1012.6
20260904092229 76 191 11.0 15.0 0.00 0.00 0.00 55 1012.6
20260904091921 76 192 11.0 15.0 0.00 0.00 0.00 55 1012.7
20260904091205 76 188 9.0 14.0 0.00 0.00 0.00 55 1012.6
20260904090855 76 186 10.0 14.0 0.00 0.00 0.00 55 1012.7
20260904090553 76 186 10.0 14.0 0.00 0.00 0.00 55 1012.7
20260904090256 76 186 10.0 14.0 0.00 0.00 0.00 55 1012.7
20260904085959 76 186 9.0 14.0 0.00 0.00 0.00 54 1012.7
20260904085647 76 185 9.0 14.0 0.00 0.00 0.00 54 1012.7
20260904084935 76 184 10.0 14.0 0.00 0.00 0.00 53 1012.6
20260904084637 76 184 10.0 14.0 0.00 0.00 0.00 53 1012.7
20260904084326 76 184 9.0 14.0 0.00 0.00 0.00 53 1012.6
20260904084022 77 183 9.0 14.0 0.00 0.00 0.00 53 1012.6
20260904083711 77 182 9.0 14.0 0.00 0.00 0.00 53 1012.6
20260904082940 77 184 9.0 14.0 0.00 0.00 0.00 53 1012.7
20260904082213 77 184 10.0 19.0 0.00 0.00 0.00 53 1012.8
20260904081902 77 185 11.0 19.0 0.00 0.00 0.00 52 1012.6
20260904081133 77 186 10.0 19.0 0.00 0.00 0.00 53 1012.7
20260904080833 77 181 9.0 19.0 0.00 0.00 0.00 53 1012.6
20260904080533 77 185 7.0 13.0 0.00 0.00 0.00 53 1012.6
20260904075803 77 185 7.0 20.0 0.00 0.00 0.00 52 1012.6
20260904075455 78 185 9.0 20.0 0.00 0.00 0.00 52 1012.6
20260904075152 78 185 10.0 20.0 0.00 0.00 0.00 51 1012.6
20260904074854 78 185 10.0 20.0 0.00 0.00 0.00 52 1012.6
20260904074552 78 192 9.0 20.0 0.00 0.00 0.00 52 1012.6
20260904074241 78 180 9.0 15.0 0.00 0.00 0.00 52 1012.6
20260904073930 78 180 8.0 15.0 0.00 0.00 0.00 52 1012.7
20260904073618 78 180 8.0 15.0 0.00 0.00 0.00 51 1012.7
20260904073309 78 180 8.0 15.0 0.00 0.00 0.00 51 1012.8
20260904072539 79 180 9.0 18.0 0.00 0.00 0.00 51 1013.0
20260904072235 79 182 9.0 18.0 0.00 0.00 0.00 50 1013.0
20260904071921 79 182 11.0 18.0 0.00 0.00 0.00 51 1013.1
20260904071151 79 187 12.0 18.0 0.00 0.00 0.00 51 1013.1
20260904070847 79 188 11.0 18.0 0.00 0.00 0.00 51 1013.1
20260904070539 79 188 11.0 18.0 0.00 0.00 0.00 51 1013.1
20260904070234 79 192 11.0 18.0 0.00 0.00 0.00 51 1013.0
20260904064627 78 209 10.0 14.0 0.00 0.00 0.00 52 1013.0
20260904064316 78 210 10.0 14.0 0.00 0.00 0.00 52 1013.0
20260904063540 77 213 9.0 12.0 0.00 0.00 0.00 52 1013.0
20260904063237 77 213 8.0 11.0 0.00 0.00 0.00 53 1013.0
20260904062939 77 213 7.0 11.0 0.00 0.00 0.00 53 1013.0
20260904062634 77 213 7.0 11.0 0.00 0.00 0.00 53 1013.0
20260904062329 77 213 7.0 11.0 0.00 0.00 0.00 53 1013.0
20260904062023 77 213 7.0 11.0 0.00 0.00 0.00 52 1013.0
20260904061711 78 213 8.0 11.0 0.00 0.00 0.00 52 1013.1
20260904061403 78 213 8.0 11.0 0.00 0.00 0.00 52 1013.0
20260904061058 78 213 9.0 11.0 0.00 0.00 0.00 51 1013.0
20260904060801 78 213 9.0 11.0 0.00 0.00 0.00 51 1013.0
20260904060452 78 213 9.0 11.0 0.00 0.00 0.00 51 1013.1
20260904060147 79 213 9.0 11.0 0.00 0.00 0.00 51 1013.1
20260904055846 78 216 8.0 11.0 0.00 0.00 0.00 51 1013.1
20260904055119 78 220 7.0 9.0 0.00 0.00 0.00 52 1012.9
20260904054813 78 220 6.0 9.0 0.00 0.00 0.00 52 1012.8
20260904054504 77 220 6.0 8.0 0.00 0.00 0.00 52 1012.9
20260904054158 77 220 6.0 8.0 0.00 0.00 0.00 52 1012.9
20260904053901 77 220 5.0 7.0 0.00 0.00 0.00 52 1012.9
20260904053602 77 220 5.0 7.0 0.00 0.00 0.00 51 1013.0
20260904053258 77 220 5.0 7.0 0.00 0.00 0.00 51 1012.9
20260904052952 77 220 5.0 7.0 0.00 0.00 0.00 50 1012.9
20260904052644 78 220 5.0 7.0 0.00 0.00 0.00 49 1013.0
20260904051911 79 220 5.0 8.0 0.00 0.00 0.00 48 1013.2
20260904051609 79 220 6.0 14.0 0.00 0.00 0.00 47 1013.2
20260904050432 81 220 7.0 14.0 0.00 0.00 0.00 45 1013.2
20260904050119 81 221 6.0 14.0 0.00 0.00 0.00 45 1013.1
20260904045353 80 248 3.0 8.0 0.00 0.00 0.00 45 1013.1
20260904045048 80 248 1.0 8.0 0.00 0.00 0.00 45 1013.1
20260904044739 80 248 0.0 8.0 0.00 0.00 0.00 44 1013.0
20260904044437 80 248 0.0 0.0 0.00 0.00 0.00 44 1013.1
20260904044128 80 248 0.0 0.0 0.00 0.00 0.00 44 1013.2
20260904043815 81 248 0.0 1.0 0.00 0.00 0.00 44 1013.1
20260904043512 81 248 0.0 0.0 0.00 0.00 0.00 43 1013.2
20260904043205 81 248 0.0 1.0 0.00 0.00 0.00 43 1013.1
20260904042902 81 248 0.0 0.0 0.00 0.00 0.00 42 1013.3
20260904042554 81 248 1.0 4.0 0.00 0.00 0.00 40 1013.4
20260904041833 81 248 2.0 4.0 0.00 0.00 0.00 40 1013.4
20260904041533 81 248 1.0 4.0 0.00 0.00 0.00 40 1013.5
20260904041231 80 248 1.0 4.0 0.00 0.00 0.00 41 1013.6
20260904040918 80 248 0.0 3.0 0.00 0.00 0.00 41 1013.6
20260904040620 79 248 0.0 3.0 0.00 0.00 0.00 41 1013.7
20260904040322 79 248 0.0 3.0 0.00 0.00 0.00 41 1013.7
20260904040011 79 248 0.0 0.0 0.00 0.00 0.00 41 1013.8
20260904035245 79 248 0.0 0.0 0.00 0.00 0.00 41 1013.7
20260904034935 79 248 0.0 3.0 0.00 0.00 0.00 41 1013.7
20260904034625 79 248 0.0 4.0 0.00 0.00 0.00 40 1013.6
20260904033859 79 248 2.0 5.0 0.00 0.00 0.00 40 1013.1
20260904033132 79 248 3.0 5.0 0.00 0.00 0.00 40 1012.9
20260904032418 79 248 3.0 5.0 0.00 0.00 0.00 40 1012.8
20260904032112 79 248 2.0 5.0 0.00 0.00 0.00 40 1012.8
20260904031803 79 248 1.0 4.0 0.00 0.00 0.00 40 1012.8
20260904031458 78 248 0.0 4.0 0.00 0.00 0.00 40 1012.7
20260904031145 79 248 0.0 3.0 0.00 0.00 0.00 40 1012.8
20260904030839 79 248 0.0 3.0 0.00 0.00 0.00 40 1012.7
20260904030534 79 248 1.0 5.0 0.00 0.00 0.00 40 1012.8
20260904030224 79 248 1.0 5.0 0.00 0.00 0.00 39 1012.6
20260904025911 79 248 1.0 5.0 0.00 0.00 0.00 39 1012.6
20260904025608 79 248 1.0 5.0 0.00 0.00 0.00 39 1012.6
20260904025259 79 248 1.0 5.0 0.00 0.00 0.00 38 1012.5
20260904024954 80 248 1.0 5.0 0.00 0.00 0.00 38 1012.5
20260904024656 80 248 2.0 5.0 0.00 0.00 0.00 37 1012.5
20260904024346 80 248 2.0 5.0 0.00 0.00 0.00 37 1012.5
20260904024046 81 248 3.0 5.0 0.00 0.00 0.00 37 1012.4
20260904023307 81 248 2.0 5.0 0.00 0.00 0.00 36 1012.5
20260904022955 82 248 1.0 5.0 0.00 0.00 0.00 36 1012.4
20260904022643 82 248 2.0 5.0 0.00 0.00 0.00 36 1012.3
20260904022338 82 248 2.0 5.0 0.00 0.00 0.00 36 1012.4
20260904022031 82 248 2.0 5.0 0.00 0.00 0.00 36 1012.4
20260904021725 82 248 1.0 5.0 0.00 0.00 0.00 35 1012.3
20260904021419 83 248 1.0 6.0 0.00 0.00 0.00 35 1012.3
20260904020657 83 248 3.0 6.0 0.00 0.00 0.00 34 1012.2
20260904020352 84 248 2.0 6.0 0.00 0.00 0.00 33 1012.3
20260904020043 84 248 2.0 6.0 0.00 0.00 0.00 33 1012.2
20260904015742 84 248 2.0 6.0 0.00 0.00 0.00 33 1012.2
20260904015434 84 248 1.0 5.0 0.00 0.00 0.00 32 1012.2
20260904015125 85 248 1.0 5.0 0.00 0.00 0.00 32 1012.0
20260904014814 85 248 1.0 5.0 0.00 0.00 0.00 31 1012.0
20260904014512 86 248 2.0 6.0 0.00 0.00 0.00 30 1012.0
20260904013745 87 248 2.0 6.0 0.00 0.00 0.00 29 1011.8
20260904013431 87 248 2.0 6.0 0.00 0.00 0.00 29 1011.6
20260904013131 87 248 2.0 6.0 0.00 0.00 0.00 28 1011.6
20260904012414 88 248 2.0 5.0 0.00 0.00 0.00 27 1011.4
20260904011651 89 248 1.0 4.0 0.00 0.00 0.00 26 1011.4
20260904011352 90 248 1.0 4.0 0.00 0.00 0.00 26 1011.4
20260904011052 91 248 0.0 4.0 0.00 0.00 0.00 25 1011.3
20260904010751 92 248 0.0 4.0 0.00 0.00 0.00 26 1011.3
20260904010441 92 248 0.0 0.0 0.00 0.00 0.00 26 1011.2
20260904010139 93 248 0.0 0.0 0.00 0.00 0.00 26 1011.3
20260904005833 93 248 0.0 2.0 0.00 0.00 0.00 26 1011.3
20260904005523 93 248 0.0 2.0 0.00 0.00 0.00 26 1011.2
20260904005222 94 248 0.0 3.0 0.00 0.00 0.00 26 1011.3
20260904004919 94 248 1.0 3.0 0.00 0.00 0.00 25 1011.3
20260904004617 95 248 1.0 3.0 0.00 0.00 0.00 25 1011.2
20260904004305 95 248 1.0 4.0 0.00 0.00 0.00 25 1011.2
20260904003957 95 248 1.0 4.0 0.00 0.00 0.00 24 1011.2
20260904003644 96 248 1.0 4.0 0.00 0.00 0.00 25 1011.2
20260904003345 96 248 2.0 10.0 0.00 0.00 0.00 24 1011.3
20260904003039 96 248 3.0 10.0 0.00 0.00 0.00 24 1011.3
20260904002728 97 248 3.0 10.0 0.00 0.00 0.00 23 1011.3
20260904002014 98 248 2.0 10.0 0.00 0.00 0.00 23 1011.2
20260904001714 98 248 2.0 10.0 0.00 0.00 0.00 23 1011.3
20260904001408 98 248 1.0 10.0 0.00 0.00 0.00 22 1011.3
20260904001102 99 248 1.0 6.0 0.00 0.00 0.00 22 1011.2
20260904000748 99 248 1.0 6.0 0.00 0.00 0.00 22 1011.2
20260904000451 99 248 2.0 6.0 0.00 0.00 0.00 23 1011.2
20260904000141 99 248 3.0 10.0 0.00 0.00 0.00 22 1011.4
20260903235833 98 248 5.0 10.0 0.00 0.00 0.00 22 1011.2
20260903235115 99 248 7.0 11.0 0.00 0.00 0.00 21 1011.2
20260903234818 99 248 8.0 11.0 0.00 0.00 0.00 20 1011.2
20260903234511 99 249 7.0 11.0 0.00 0.00 0.00 20 1011.2
20260903234200 99 252 5.0 11.0 0.00 0.00 0.00 20 1011.2
20260903233847 100 252 3.0 11.0 0.00 0.00 0.00 20 1011.2
20260903233539 100 254 3.0 11.0 0.00 0.00 0.00 20 1011.2
20260903232815 100 265 3.0 9.0 0.00 0.00 0.00 20 1011.3
20260903232049 99 265 6.0 9.0 0.00 0.00 0.00 20 1011.2
20260903231323 100 265 5.0 9.0 0.00 0.00 0.00 20 1011.3
20260903231025 100 266 5.0 9.0 0.00 0.00 0.00 20 1011.2
20260903230725 100 266 5.0 9.0 0.00 0.00 0.00 20 1011.3
20260903230419 100 266 4.0 10.0 0.00 0.00 0.00 21 1011.3
20260903230115 100 266 3.0 10.0 0.00 0.00 0.00 20 1011.3
20260903225814 100 265 3.0 10.0 0.00 0.00 0.00 22 1011.3
20260903225101 99 265 6.0 11.0 0.00 0.00 0.00 21 1011.2
20260903224333 100 269 7.0 14.0 0.00 0.00 0.00 21 1011.3
20260903224023 99 268 7.0 14.0 0.00 0.00 0.00 21 1011.2
20260903223716 99 268 8.0 14.0 0.00 0.00 0.00 21 1011.2
20260903223408 99 268 8.0 14.0 0.00 0.00 0.00 20 1011.2
20260903223058 99 261 7.0 14.0 0.00 0.00 0.00 21 1011.2
20260903222318 100 260 7.0 13.0 0.00 0.00 0.00 21 1011.2
20260903222014 99 260 7.0 13.0 0.00 0.00 0.00 20 1011.1
20260903221711 100 260 7.0 13.0 0.00 0.00 0.00 20 1011.1
20260903221402 100 251 6.0 13.0 0.00 0.00 0.00 21 1011.1
20260903221059 100 277 6.0 13.0 0.00 0.00 0.00 20 1011.2
20260903215907 100 273 7.0 12.0 0.00 0.00 0.00 21 1011.4
20260903215148 99 281 7.0 15.0 0.00 0.00 0.00 20 1011.4
20260903214841 99 275 8.0 15.0 0.00 0.00 0.00 20 1011.4
20260903214535 99 273 7.0 15.0 0.00 0.00 0.00 21 1011.4
20260903214223 99 281 7.0 17.0 0.00 0.00 0.00 21 1011.4
20260903213916 99 246 6.0 17.0 0.00 0.00 0.00 21 1011.5
20260903213153 100 227 10.0 17.0 0.00 0.00 0.00 22 1011.7
20260903212011 99 277 6.0 15.0 0.00 0.00 0.00 22 1011.8
20260903211714 99 275 7.0 15.0 0.00 0.00 0.00 21 1011.9
20260903210949 99 277 8.0 15.0 0.00 0.00 0.00 22 1012.0
20260903210635 99 259 8.0 15.0 0.00 0.00 0.00 21 1012.0
20260903210335 99 200 8.0 15.0 0.00 0.00 0.00 22 1012.2
20260903210029 99 199 10.0 15.0 0.00 0.00 0.00 21 1012.2
20260903205729 99 197 8.0 15.0 0.00 0.00 0.00 21 1012.2
20260903205417 99 211 8.0 15.0 0.00 0.00 0.00 21 1012.2
20260903205117 98 241 7.0 14.0 0.00 0.00 0.00 21 1012.3
20260903204815 98 271 7.0 14.0 0.00 0.00 0.00 21 1012.2
20260903204513 98 267 8.0 14.0 0.00 0.00 0.00 21 1012.4
20260903204210 99 269 7.0 14.0 0.00 0.00 0.00 22 1012.5
20260903203904 99 291 7.0 14.0 0.00 0.00 0.00 21 1012.4
20260903203140 99 235 8.0 14.0 0.00 0.00 0.00 21 1012.4
20260903202838 99 259 7.0 13.0 0.00 0.00 0.00 20 1012.5
20260903202534 99 265 6.0 13.0 0.00 0.00 0.00 22 1012.5
20260903202231 99 276 4.0 13.0 0.00 0.00 0.00 21 1012.5
20260903201505 98 291 4.0 9.0 0.00 0.00 0.00 21 1012.5
20260903200748 98 290 7.0 14.0 0.00 0.00 0.00 21 1012.7
20260903200021 98 301 8.0 17.0 0.00 0.00 0.00 22 1012.7